Regional Weather Roundup
Issued by NWS Cleveland, OH

Home | Current Version | Previous Version | Graphics & Text | Print | Product List | Glossary On
Versions: 1 2 3 4 5 6 7 8 9 10 11 12 13 14 15 16 17 18 19 20 21 22 23 24 25 26 27 28 29 30 31 32 33 34 35 36 37 38 39 40 41 42 43 44 45 46 47 48 49 50
688
ASUS41 KCLE 221012
RWRCLE
OHIO REGIONAL WEATHER ROUNDUP
NATIONAL WEATHER SERVICE WILMINGTON, OH
600 AM EDT FRI SEP 22 2017

NOTE: "FAIR" INDICATES FEW OR NO CLOUDS BELOW 12,000 FEET WITH NO
SIGNIFICANT WEATHER AND/OR OBSTRUCTIONS TO VISIBILITY.

OHZ001>008-015>018-024>027-034-035-043-044-221100-
   NORTHWEST OHIO

CITY           SKY/WX    TMP DP  RH WIND       PRES   REMARKS
DEFIANCE       FAIR      68  66  93 CALM      30.10R FOG
FINDLAY        FAIR      70  65  84 CALM      30.09S
TOLEDO EXPRESS FAIR      69  69 100 CALM      30.10R FOG
TOLEDO EXEC    FAIR      68  66  93 CALM      30.10S FOG
LIMA           FAIR      65  64  97 CALM      30.10S
$$

OHZ009>014-019>023-028>033-038-089-221100-
   NORTHEAST OHIO

CITY           SKY/WX    TMP DP  RH WIND       PRES   REMARKS
CLE-HOPKINS    FAIR      66  61  84 CALM      30.13R
CLE-LAKEFRONT  FAIR      70  61  73 CALM      30.11R
CUY CO. ARPT   NOT AVBL
LORAIN-ELYRIA  FAIR      62  57  83 CALM      30.12R
ASHTABULA      FAIR      58  58 100 CALM      30.15R
AKRON-CANTON   FAIR      68  60  75 E3        30.13R
WOOSTER        FAIR      57  56  96 CALM      30.13R
MANSFIELD      FAIR      65  64  97 SE3       30.13R
YOUNGSTOWN     FAIR      58  57  97 E6        30.13S
$$

OHZ042-051>053-060>062-070>072-077>081-221100-
  SOUTHWEST OHIO

CITY           SKY/WX    TMP DP  RH WIND       PRES   REMARKS
CINC-COVINGTON FAIR      68  68 100 CALM      30.10R
CINC-LUNKEN    FOG       66  66 100 CALM      30.10R VSB 1
HAMILTON       FAIR      65  65 100 CALM      30.10S FOG
DAYTON         FAIR      69  66  90 SE6       30.11R
WRIGHT-PAT AFB CLEAR     65  65 100 CALM      30.10R
DAYTON GENERAL FAIR      69  65  86 CALM      30.10R
WILMINGTON     FAIR      66  66 100 CALM      30.11R
$$

OHZ036-037-039>041-045>050-054>059-063>069-073>076-082>088-221100-
  CENTRAL AND SOUTHEAST OHIO

CITY           SKY/WX    TMP DP  RH WIND       PRES   REMARKS
COLUMBUS       MOCLDY    68  66  93 NE3       30.10R
OSU AIRPORT    FAIR      67  67 100 CALM      30.10S
BOLTON FIELD   FAIR      64  64  99 CALM      30.11R FOG
RICKENBACK AFB MOCLDY    64  64 100 CALM      30.10R
NEWARK         FOG       63  61  93 CALM      30.11R VSB 3/4
MARION         FAIR      66  62  87 CALM      30.12R
LANCASTER      FAIR      60  60 100 CALM      30.12R FOG
ZANESVILLE     FAIR      62  60  93 CALM      30.12R
NEW PHILLY     FOG       61  61 100 CALM      30.13R VSB 1
$$




USA.gov is the U.S. government's official web portal to all federal, state and local government web resources and services.